CDT,Max TemperatureF,Mean TemperatureF,Min TemperatureF,Max Dew PointF,MeanDew PointF,Min DewpointF,Max Humidity, Mean Humidity, Min Humidity, Max Sea Level PressureIn, Mean Sea Level PressureIn, Min Sea Level PressureIn, Max VisibilityMiles, Mean VisibilityMiles, Min VisibilityMiles, Max Wind SpeedMPH, Mean Wind SpeedMPH, Max Gust SpeedMPH,PrecipitationIn, CloudCover, Events, WindDirDegrees
2012-9-1,75,67,59,59,55,50,88,69,41,30.15,30.11,30.04,10,10,10,16,5,24,0.00,1,,51
2012-9-2,78,69,60,63,58,54,94,68,42,30.04,30.00,29.96,10,10,10,16,6,20,0.00,3,,70
2012-9-3,86,72,59,68,64,57,100,78,45,29.97,29.94,29.88,10,9,0,10,1,,0.00,2,Fog-Rain,117
2012-9-4,86,74,62,68,64,55,100,76,45,29.92,29.88,29.75,10,9,0,23,3,38,0.03,2,Fog-Rain,139
2012-9-5,80,70,59,63,58,54,100,72,39,29.87,29.81,29.75,10,10,10,17,4,29,0.01,1,,188
2012-9-6,78,68,57,63,53,39,100,68,24,29.95,29.91,29.84,10,9,0,13,3,16,0.00,1,Fog,311
2012-9-7,68,60,51,61,56,50,100,91,68,29.93,29.87,29.83,10,8,0,15,3,22,0.01,5,Fog-Rain,355
2012-9-8,68,58,48,52,46,39,100,71,37,29.89,29.85,29.80,10,10,7,20,8,28,0.00,3,Rain,293
2012-9-9,68,59,50,50,46,39,100,69,37,30.15,30.05,29.88,10,10,7,15,6,20,0.00,1,,337
2012-9-10,73,58,44,50,45,43,94,60,33,30.21,30.15,30.06,10,10,5,12,3,20,0.00,0,,208
2012-9-11,82,66,51,52,49,46,82,53,32,30.09,30.04,29.99,10,10,10,17,6,26,0.00,0,,197
2012-9-12,84,72,60,55,50,34,68,49,32,30.17,30.08,30.04,10,10,10,15,8,23,0.00,0,Rain,228
2012-9-13,60,55,48,50,45,37,94,72,42,30.33,30.28,30.17,10,10,10,10,6,16,0.00,5,Rain,320
2012-9-14,71,56,41,50,41,32,100,67,23,30.33,30.30,30.26,10,9,0,16,3,20,0.00,0,Fog,298
2012-9-15,77,58,39,54,43,36,100,65,26,30.31,30.22,30.10,10,10,4,10,2,,0.00,0,,224
2012-9-16,73,62,50,46,42,37,77,48,27,30.10,30.03,29.94,10,10,10,17,7,24,0.00,0,,227
2012-9-17,71,60,48,55,49,43,88,69,46,29.94,29.84,29.76,10,10,5,17,5,23,0.00,4,,286
2012-9-18,59,48,35,41,35,28,93,64,31,30.02,29.91,29.83,10,10,10,18,9,26,0.00,3,,310
2012-9-19,73,52,32,52,38,32,100,62,27,30.03,29.89,29.70,10,10,7,24,6,36,0.06,4,Rain,198
2012-9-20,68,55,42,48,39,32,87,58,26,29.90,29.85,29.81,10,10,10,21,7,29,0.00,1,,254
2012-9-21,60,50,39,46,41,36,93,69,45,29.90,29.83,29.77,10,10,10,16,4,23,0.00,4,Rain,236
2012-9-22,57,48,39,45,39,32,100,76,50,30.15,29.95,29.76,10,10,2,18,6,25,0.17,4,Rain,285
2012-9-23,57,46,35,36,32,27,93,64,31,30.23,30.20,30.15,10,10,10,16,6,22,0.00,2,,283
2012-9-24,69,51,33,36,33,28,100,51,25,30.19,29.99,29.81,10,10,10,22,7,30,0.00,0,,225
2012-9-25,77,62,46,52,44,34,100,58,26,29.91,29.83,29.79,10,10,2,16,9,25,0.00,0,,243
2012-9-26,62,50,37,46,39,32,100,71,32,30.21,30.07,29.92,10,9,0,13,3,16,0.00,1,Fog,11
2012-9-27,62,48,33,46,40,34,100,77,42,30.27,30.22,30.20,10,10,4,15,3,22,0.00,5,,43
2012-9-28,69,53,37,45,39,32,100,69,25,30.22,30.17,30.11,10,10,1,7,1,,0.00,0,,307
2012-9-29,75,58,41,48,41,34,100,65,22,30.10,30.05,30.00,10,10,10,12,2,16,0.00,0,,23
2012-9-30,66,52,39,52,42,37,100,78,35,30.03,30.00,29.97,10,8,0,9,2,,0.00,2,Fog,86